User: anonymous   Login
Location: Unspecified
(0.0000°N, 0.0000°E)
Time: 22:21:31
(UTC+00:00)
Language:

USA 197 - Orbit

View from above orbital plane
View from above orbital plane
View from above satellite
View from above satellite

Ground track
Ground track

The orbit data is extracted from the following two-line orbital elements,

1 32287U 07054A   18196.34383296 0.00000000  00000-0  00000-0 0    04
2 32287   4.8410  70.1348 0003723 207.2384 152.7544  1.00303816    05
Epoch (UTC): 15 July 2018 08:15:07
Eccentricity: 0.0003723
inclination: 4.8410°
perigee height: 35761 km
apogee height: 35793 km
right ascension of ascending node: 70.1348°
argument of perigee: 207.2384°
revolutions per day: 1.00303816
mean anomaly at epoch: 152.7544°
orbit number at epoch: 0

The dashed part of the orbit path shows where the satellite is in the earth's shadow,  

DLR